Weather History for Shanghai Hongqiao, SH

Change the Weather History Date:

Thursday, December 26, 2013

  Actual Average Record
Temperature  
Mean Temperature 38 °F -  
Max Temperature 44 °F 47 °F 59 °F (2006)
Min Temperature 32 °F 33 °F 24 °F (2001)
Degree Days  
Heating Degree Days 26    
Moisture  
Dew Point 27 °F    
Average Humidity 60    
Maximum Humidity 75    
Minimum Humidity 44    
Precipitation  
Precipitation 0.00 in 0.05 in - ()
Sea Level Pressure  
Sea Level Pressure 30.33 in    
Wind  
Wind Speed 9 mph ()    
Max Wind Speed 20 mph    
Max Gust Speed 29 mph    
Visibility 2.3 miles    
Events      
Averages and records for this station are not official NWS values.
T = Trace of Precipitation, MM = Missing Value Source: Averaged Metar Reports

Daily Weather History Graph

Daily Weather History Graph

Search for Another Location

Airport:

Trip Planner

Search our weather history database for the weather conditions in past years. The results will help you decide how hot, cold, wet, or windy it might be!

Date:

Astronomy

Dec. 26, 2013 Rise Set
Actual Time 6:51 AM CST 4:59 PM CST
Civil Twilight 6:24 AM CST 5:25 PM CST
Nautical Twilight 5:54 AM CST 5:56 PM CST
Astronomical Twilight 5:24 AM CST 6:25 PM CST
Moon 12:03 AM CST (12/26) 11:58 AM CST (12/26)
Length of Visible Light 11h 01m
Length of Day
10h 07m
Last Quarter, 44% of the Moon is Illuminated
Dec 26
Last Quarter
Jan 1
New
Jan 8
First Quarter
Jan 16
Full
Jan 24
Last Quarter

Hourly Weather History & Observations

Time (CST) Temp. Windchill Dew Point Humidity Pressure Visibility Wind Dir Wind Speed Gust Speed Precip Events Conditions
12:00 AM 41.0 °F - 30.2 °F 65% 30.33 in - Variable 2.2 mph - N/A   Clear
12:30 AM 41.0 °F 38.1 °F 32.0 °F 70% 30.33 in - NNW 4.5 mph - N/A   Clear
1:00 AM 41.0 °F 36.5 °F 32.0 °F 70% 30.33 in - NNW 6.7 mph - N/A   Clear
1:30 AM 39.2 °F 34.4 °F 30.2 °F 70% 30.33 in - NNW 6.7 mph - N/A   Clear
2:00 AM 41.0 °F 36.5 °F 30.2 °F 65% 30.33 in - NW 6.7 mph - N/A   Clear
2:30 AM 41.0 °F 35.4 °F 30.2 °F 65% 30.33 in - NW 8.9 mph - N/A   Clear
3:00 AM 39.2 °F 33.1 °F 30.2 °F 70% 30.30 in 4.3 mi NNW 8.9 mph - N/A   Unknown
3:30 AM 39.2 °F 34.4 °F 30.2 °F 70% 30.30 in 4.3 mi NNW 6.7 mph - N/A   Unknown
4:00 AM 39.2 °F 33.1 °F 30.2 °F 70% 30.27 in 4.3 mi NNW 8.9 mph - N/A   Unknown
4:30 AM 39.2 °F 34.4 °F 30.2 °F 70% 30.27 in 4.3 mi NW 6.7 mph - N/A   Unknown
5:00 AM 37.4 °F 33.9 °F 28.4 °F 70% 30.27 in 4.3 mi WSW 4.5 mph - N/A   Unknown
5:30 AM 37.4 °F 32.2 °F 28.4 °F 70% 30.30 in 3.7 mi WSW 6.7 mph - N/A   Unknown
6:00 AM 37.4 °F 33.9 °F 28.4 °F 70% 30.30 in 3.7 mi West 4.5 mph - N/A   Unknown
6:30 AM 37.4 °F 33.9 °F 30.2 °F 75% 30.33 in 2.5 mi West 4.5 mph - N/A   Haze
7:00 AM 37.4 °F 33.9 °F 28.4 °F 70% 30.30 in 1.6 mi SW 4.5 mph - N/A   Mist
7:30 AM 37.4 °F 33.9 °F 30.2 °F 75% 30.30 in 1.0 mi WNW 4.5 mph - N/A   Mist
8:00 AM 39.2 °F 33.1 °F 30.2 °F 70% 30.33 in 0.7 mi NW 8.9 mph - N/A   Mist
8:30 AM 41.0 °F 36.5 °F 32.0 °F 70% 30.30 in 0.6 mi WNW 6.7 mph - N/A   Haze
9:00 AM 41.0 °F 35.4 °F 30.2 °F 65% 30.33 in 0.6 mi WNW 8.9 mph - N/A   Haze
9:30 AM 41.0 °F 34.4 °F 30.2 °F 65% 30.36 in 0.6 mi WNW 11.2 mph - N/A   Haze
10:00 AM 42.8 °F 35.9 °F 28.4 °F 57% 30.33 in 0.9 mi NW 13.4 mph - N/A   Haze
10:30 AM 42.8 °F 35.9 °F 26.6 °F 53% 30.33 in 1.0 mi NW 13.4 mph - N/A   Haze
11:00 AM 44.6 °F 38.9 °F 26.6 °F 49% 30.33 in 1.1 mi NNW 11.2 mph - N/A   Haze
11:30 AM 42.8 °F 35.2 °F 24.8 °F 49% 30.30 in 1.1 mi NW 15.7 mph - N/A   Haze
12:00 PM 44.6 °F 38.2 °F 26.6 °F 49% 30.27 in 1.2 mi NW 13.4 mph - N/A   Haze
12:30 PM 44.6 °F 37.6 °F 24.8 °F 46% 30.27 in 1.2 mi NW 15.7 mph - N/A   Haze
1:00 PM 44.6 °F 37.6 °F 26.6 °F 49% 30.27 in 1.2 mi NW 15.7 mph - N/A   Haze
1:30 PM 44.6 °F 38.2 °F 28.4 °F 53% 30.27 in 1.2 mi NW 13.4 mph - N/A   Haze
2:00 PM 44.6 °F 37.6 °F 30.2 °F 57% 30.27 in 1.2 mi NNW 15.7 mph - N/A   Haze
2:30 PM 44.6 °F 37.6 °F 32.0 °F 61% 30.27 in 1.0 mi NNW 15.7 mph - N/A   Haze
3:00 PM 42.8 °F 35.9 °F 32.0 °F 66% 30.27 in 1.0 mi NNW 13.4 mph - N/A   Haze
3:30 PM 42.8 °F 34.7 °F 30.2 °F 61% 30.30 in 1.0 mi NNW 17.9 mph - N/A   Haze
4:00 PM 42.8 °F 35.2 °F 30.2 °F 61% 30.30 in 1.2 mi NNW 15.7 mph - N/A   Haze
4:30 PM 42.8 °F 35.9 °F 30.2 °F 61% 30.30 in 1.6 mi NNW 13.4 mph - N/A   Haze
5:00 PM 42.8 °F 35.9 °F 28.4 °F 57% 30.30 in 1.7 mi North 13.4 mph - N/A   Haze
5:30 PM 41.0 °F 32.9 °F 28.4 °F 61% 30.30 in 3.1 mi North 15.7 mph - N/A   Haze
6:00 PM 41.0 °F 32.9 °F 26.6 °F 57% 30.33 in 2.5 mi NNW 15.7 mph - N/A   Haze
6:30 PM 41.0 °F 32.9 °F 26.6 °F 57% 30.33 in 3.1 mi NW 15.7 mph - N/A   Haze
7:00 PM 39.2 °F 31.3 °F 24.8 °F 56% 30.33 in 5.0 mi North 13.4 mph - N/A   Mostly Cloudy
7:30 PM 39.2 °F 30.6 °F 23.0 °F 52% 30.36 in 5.0 mi North 15.7 mph - N/A   Mostly Cloudy
8:00 PM 35.6 °F 24.7 °F 17.6 °F 48% 30.36 in 6.2 mi North 20.1 mph - N/A   Scattered Clouds
8:30 PM 35.6 °F 25.3 °F 15.8 °F 44% 30.39 in - NNW 17.9 mph - N/A   Clear
9:00 PM 33.8 °F 24.5 °F 14.0 °F 44% 30.42 in - NW 13.4 mph - N/A   Clear
9:30 PM 33.8 °F 24.5 °F 14.0 °F 44% 30.42 in - NW 13.4 mph 24.6 mph N/A   Clear
10:00 PM 33.8 °F 23.7 °F 15.8 °F 48% 30.42 in - WNW 15.7 mph - N/A   Clear
10:30 PM 33.8 °F 23.7 °F 15.8 °F 48% 30.45 in - NW 15.7 mph - N/A   Clear
11:00 PM 33.8 °F 23.0 °F 14.0 °F 44% 30.45 in - NW 17.9 mph - N/A   Clear
11:30 PM 32.0 °F 21.4 °F 14.0 °F 48% 30.45 in - NW 15.7 mph 29.1 mph N/A   Clear